Regional Weather Roundup
Issued by NWS Albany, NY

Home | Current Version | Previous Version | Text Only | Print | Product List | Glossary On
Versions: 1 2 3 4 5 6 7 8 9 10 11 12 13 14 15 16 17 18 19 20 21 22 23 24 25 26 27 28 29 30 31 32 33 34 35 36 37 38 39 40 41 42 43 44 45 46 47 48 49 50
823
ASUS41 KALY 121210
RWRALY

NEW YORK STATE HOURLY WEATHER ROUNDUP
NATIONAL WEATHER SERVICE ALBANY NY
700 AM EST FRI FEB 12 2016

NOTE: "FAIR" INDICATES FEW OR NO CLOUDS BELOW 12,000 FEET WITH NO
SIGNIFICANT WEATHER AND/OR NO OBSTRUCTIONS TO VISIBILITY.

NYZ032-033-038>043-046>054-057>066-NYZ062>081-121300-
EAST


CITY           SKY/WX    TMP DP  RH WIND       PRES   REMARKS
ALBANY         PTCLDY     4  -2  76 CALM      30.19S
GLENS FALLS    CLEAR     -5 -12  72 NW3       30.17S
POUGHKEEPSIE   CLEAR     14   0  53 SW5       30.23R WCI   6
NEWBURGH       CLEAR      9   1  72 W7        30.22R WCI  -3
MONTGOMERY     CLEAR      9   0  67 W5        30.21S WCI   1
WHITE PLAINS   CLEAR     13  -1  54 W12       30.21S WCI  -1
ISLIP          PTCLDY    14   0  53 W5        30.25R WCI   6
NEW YORK CITY  CLEAR     17   1  49 NW16      30.26F WCI   2
CENTRAL PARK   CLEAR     16  -2  45 W9        30.27F WCI   4
$$

NYZ005>009-017-018-044>046-055-056-121300-
CENTRAL


CITY           SKY/WX    TMP DP  RH WIND       PRES   REMARKS
FULTON         CLEAR      9   0  67 S8        30.07F WCI  -3
SYRACUSE       PTCLDY     9   2  73 S8        30.09F WCI  -3
ROME           LGT SNOW   2  -2  83 SE8       30.14F FOG     WCI -12
ELMIRA         PTCLDY    -2  -7  79 E3        30.13S
BINGHAMTON     CLEAR      4  -3  73 SW8       30.05S WCI  -9
MONTICELLO     CLEAR      1  -2  85 W3        30.11F
$$

NYZ026>034-041>043-121300-
NORTH


CITY           SKY/WX    TMP DP  RH WIND       PRES   REMARKS
WATERTOWN      SNOW      11   7  84 S9        30.06F VSB 1/2 WCI  -2
FORT DRUM      NOT AVBL
MASSENA        CLEAR    -12 -18  74 CALM      30.09F
SARANAC LAKE   CLEAR    -23 -28  78 CALM      29.93F
PLATTSBURGH    CLEAR     -7 -13  75 CALM      30.14S
$$

NYZ001>004-010>016-019>021-121300-
WEST


CITY           SKY/WX    TMP DP  RH WIND       PRES   REMARKS
NIAGARA FALLS  PTCLDY    15   3  59 W12       30.06F WCI   2
BUFFALO        FLURRIES  14  10  84 S12       30.06F WCI   0
DUNKIRK        LGT SNOW  14  11  87 S13       30.10S VSB 1   WCI   0
JAMESTOWN      MOCLDY     9   1  72 SW10      30.01S WCI  -6
WELLSVILLE     PTCLDY     6   1  80 SW14G20   30.00F WCI -11
ROCHESTER      FLURRIES  15   8  73 SW10      30.08F WCI   2
PENN YAN       CLEAR     10   4  76 S13       30.09S WCI  -5
$$

             KEY
       WCI = WIND CHILL INDEX
       VSB = VISIBILITY
       HX  = HEAT INDEX
$$




USA.gov is the U.S. government's official web portal to all federal, state and local government web resources and services.